Theta_e
318 317 317 320 319 322 321 322 322 322 321 320 319 319 318 322 321 323 324 323 323 323 324 323 323 321 323 319 319 317 316 313 314 311 310 311 313 313 314 317 317 318 319
316 315 316 317 320 320 321 322 321 321 321 320 320 319 319 321 322 322 322 322 323 322 321 323 322 319 322 319 317 314 312 313 313 309 308 304 306 310 311 311 313 315 317
314 314 315 316 319 319 320 320 319 320 320 320 320 319 318 318 318 318 319 320 321 320 320 322 321 320 320 318 316 314 312 310 311 312 308 303 302 304 306 308 308 310 310
315 314 315 315 318 319 320 320 319 319 319 321 319 317 315 313 316 316 318 318 319 319 318 320 319 319 320 317 316 317 314 314 309 310 313 313 312 305 303 306 307 307 309
315 314 314 316 317 320 319 319 318 318 319 320 319 317 315 316 316 317 316 317 318 317 318 318 319 317 318 318 318 318 317 317 314 310 311 311 312 311 307 302 305 306 309
315 315 315 317 317 319 318 318 317 317 318 319 319 317 315 314 312 314 316 317 317 317 319 317 320 320 318 319 318 318 318 318 317 315 314 312 310 309 308 305 304 304 306
315 314 314 315 316 317 317 317 316 316 318 317 318 317 315 314 312 313 314 315 315 316 317 319 318 318 319 319 319 318 317 317 317 317 317 317 317 315 312 311 307 307 307
315 315 315 315 316 317 317 318 316 315 318 317 317 318 318 316 315 314 315 316 316 316 317 318 320 320 317 318 319 319 318 318 318 317 317 318 318 318 316 312 310 304 306
308 315 316 316 316 317 317 316 318 317 317 318 318 317 318 317 316 316 315 316 317 317 316 316 319 320 319 317 317 317 317 318 318 318 318 317 318 318 318 316 315 311 304
306 313 316 316 317 319 318 317 318 318 318 318 319 318 318 318 318 318 316 315 316 317 317 316 318 319 320 320 318 318 317 316 317 317 317 316 317 317 318 317 316 315 312
307 308 316 317 317 318 318 317 317 317 318 318 319 318 318 318 318 318 318 318 316 316 317 316 318 319 319 320 319 319 317 316 315 315 315 315 317 316 317 318 317 315 315
309 310 316 317 316 317 318 317 317 317 318 318 318 317 319 319 319 318 318 319 318 318 317 316 316 317 318 318 317 317 318 316 314 314 313 314 316 315 316 316 315 315 315
309 310 312 314 316 316 317 318 318 317 318 318 317 316 317 318 318 319 320 319 318 318 318 317 315 316 318 318 318 318 317 317 316 315 314 314 314 313 315 315 315 315 315
309 310 310 312 314 315 317 317 318 318 318 319 318 316 316 317 318 319 319 320 320 319 317 317 317 317 317 318 318 318 318 317 317 316 316 315 314 314 314 315 315 315 315
308 309 310 310 310 311 312 314 315 318 318 318 318 318 318 318 317 318 319 320 320 319 319 317 316 317 317 318 318 318 317 317 316 317 316 316 314 308 311 316 316 315 315
306 309 308 307 305 305 306 308 310 314 317 318 317 319 319 319 318 318 318 318 320 320 320 319 318 317 317 308 302 311 317 316 315 314 314 315 306 306 301 300 302 312 314
305 306 303 301 300 299 301 302 309 310 312 311 312 318 319 320 319 319 318 318 318 320 319 319 320 319 318 304 301 299 316 316 315 315 315 315 316 307 314 303 296 291 291
303 301 299 297 296 295 296 301 303 302 303 303 304 306 306 308 316 320 320 320 320 319 320 320 320 320 320 303 301 298 309 315 317 317 317 317 316 312 311 294 287 286 286
300 298 295 294 293 292 294 296 296 297 297 297 300 301 299 300 305 311 318 319 319 319 319 319 319 319 318 291 293 297 308 313 302 293 293 296 297 293 295 289 284 283 283
297 294 292 291 290 290 293 293 293 293 292 293 294 294 294 295 295 300 300 316 319 318 314 296 292 292 293 289 291 297 302 291 286 286 287 288 288 289 289 287 284 281 281
293 294 291 287 287 288 290 289 290 289 290 290 290 289 289 290 290 294 296 297 300 296 291 287 286 287 287 288 289 291 290 287 285 284 284 285 286 286 286 285 283 281 282
289 289 287 286 285 286 286 286 286 289 288 287 285 285 285 286 286 286 289 290 290 287 285 284 283 284 284 286 287 287 286 286 284 283 283 284 285 285 284 283 283 283 282
285 286 284 283 283 284 284 283 285 287 286 284 283 283 283 284 284 283 283 285 286 285 283 282 281 281 282 282 283 284 284 284 282 283 283 283 283 282 281 283 283 282 281
282 283 282 281 281 282 283 284 285 286 285 282 282 281 281 281 282 282 282 281 282 281 282 281 280 280 281 281 281 281 281 281 280 280 280 280 279 279 279 279 279 279 278
281 281 280 280 280 282 282 283 285 285 283 283 282 281 281 280 280 280 281 280 281 281 280 280 281 280 280 281 283 282 281 281 281 281 280 278 278 277 276 277 276 276 276
279 279 279 279 280 281 281 282 283 284 283 282 282 282 281 279 279 278 278 282 283 283 283 283 282 282 283 284 284 284 283 283 282 279 277 276 276 276 275 273 273 274 274
Wind_Speed
15 15 15 15 13 13 14 13 11 9 8 6 5 4 5 6 6 7 9 8 5 6 12 8 6 5 8 4 9 6 7 3 5 5 2 1 4 7 6 8 9 10 11
17 17 15 14 15 14 13 13 12 11 8 7 6 2 4 5 9 9 10 10 9 6 7 9 8 5 7 3 4 6 3 3 5 5 3 3 2 2 3 4 7 11 8
20 18 17 15 15 16 16 14 14 12 9 7 7 6 4 4 5 8 9 9 9 10 10 13 12 6 10 10 9 5 7 4 2 8 6 3 4 2 2 6 5 7 5
20 20 18 16 17 14 13 15 15 13 11 10 9 12 8 9 6 9 10 10 6 7 6 9 14 10 6 7 5 5 4 5 4 4 2 3 5 4 1 2 4 5 7
23 22 20 19 16 18 14 13 15 14 12 11 12 11 11 9 8 8 13 9 5 6 6 6 7 6 5 6 7 6 6 4 4 4 4 2 2 2 3 3 4 1 4
22 21 18 18 15 16 14 14 16 14 14 13 13 14 16 11 9 8 9 7 3 4 6 7 7 7 6 6 5 6 7 6 4 4 4 4 4 4 3 2 3 5 5
21 19 19 17 16 18 17 14 15 16 15 15 13 14 13 14 14 12 9 10 7 8 7 7 7 6 6 6 6 7 6 6 4 4 3 2 3 3 3 3 4 4 5
19 21 21 19 19 19 19 18 16 16 16 16 15 13 14 10 10 13 10 10 9 8 8 5 6 7 7 6 5 4 5 6 6 5 5 5 6 5 5 5 4 2 4
13 20 20 19 19 19 19 17 18 16 17 17 14 14 13 12 12 15 14 12 11 9 9 8 8 8 8 8 7 5 7 8 10 11 9 9 9 7 8 5 7 7 6
5 15 18 19 18 19 17 16 17 16 16 16 14 13 14 14 13 12 16 15 14 14 13 12 11 11 11 11 10 9 9 10 9 10 14 15 13 13 9 9 8 8 10
10 8 17 16 16 16 16 16 15 15 14 15 14 14 13 15 13 13 13 14 14 15 16 16 15 15 15 15 14 14 13 14 14 14 15 16 16 11 10 10 10 10 10
21 11 15 15 16 16 15 16 14 14 15 15 13 15 14 14 15 15 15 15 16 15 17 16 16 18 17 17 17 18 16 17 17 17 16 17 11 15 14 11 15 13 12
20 19 20 12 6 15 14 15 14 15 13 16 15 14 16 16 16 16 14 16 16 17 17 17 19 18 18 18 18 19 19 19 18 18 18 20 17 16 13 14 13 12 12
19 17 16 13 13 15 9 5 14 14 15 17 18 17 18 18 17 16 16 16 17 17 18 19 19 19 19 20 19 19 20 20 20 19 19 19 19 20 19 16 16 14 13
19 17 16 14 14 13 12 12 14 6 9 15 17 18 18 18 17 17 17 17 18 17 17 17 18 19 20 16 21 21 20 20 20 20 19 19 20 20 20 13 16 15 14
17 16 17 16 16 15 13 11 11 9 9 9 11 15 16 17 18 18 18 19 18 19 18 20 19 19 16 20 19 18 17 18 19 20 19 18 17 19 20 21 21 19 17
17 16 16 16 16 15 14 14 13 14 14 12 16 10 7 16 19 18 18 19 19 17 20 20 18 19 19 19 18 21 19 18 20 19 17 16 14 15 17 19 10 9 7
16 15 14 15 16 16 18 16 15 15 13 14 13 14 14 14 11 16 19 19 17 19 19 19 19 17 17 15 21 22 17 18 19 17 16 17 15 10 11 7 8 8 9
15 13 13 14 14 17 17 15 16 16 16 16 15 14 14 12 12 14 15 17 16 16 15 13 15 17 14 8 5 4 9 14 4 5 6 3 1 3 15 11 11 11 10
14 12 13 12 14 15 14 15 15 16 16 17 16 15 14 14 14 15 15 12 13 12 4 8 7 10 6 10 7 3 4 6 5 6 7 13 7 8 9 13 14 12 7
15 13 14 13 14 14 13 14 14 15 15 14 14 15 14 13 15 13 12 14 10 8 9 11 9 10 10 8 9 5 5 8 7 7 7 8 19 20 21 18 9 10 11
16 15 12 13 13 13 12 13 14 12 12 11 12 14 13 12 11 15 14 14 12 11 11 11 10 11 13 18 17 19 18 13 11 10 9 12 24 26 26 19 21 18 9
12 12 13 13 13 13 12 12 12 11 10 11 12 13 13 12 13 15 14 12 12 10 10 9 9 9 9 12 27 25 25 24 17 13 19 25 24 25 21 23 18 11 6
13 12 13 14 14 13 13 13 13 11 10 11 12 12 14 15 14 12 12 13 11 10 10 10 9 10 7 10 10 9 11 18 14 16 14 14 17 17 13 13 12 9 8
12 12 13 13 14 13 14 14 13 11 11 12 11 11 11 13 15 17 13 13 16 13 9 9 8 9 11 11 19 15 10 9 9 10 11 10 7 10 9 10 10 8 8
11 13 14 14 14 14 14 14 13 13 11 11 10 9 8 9 9 10 13 29 27 30 29 21 15 10 26 15 27 24 21 20 12 9 10 8 10 7 9 9 7 7 7
Wind_Direction
177 158 151 147 142 139 143 154 142 147 148 146 150 158 173 157 160 167 164 161 149 141 166 164 157 145 167 137 183 161 156 148 157 107 48 73 180 178 169 172 183 189 192
154 154 155 151 154 145 148 146 142 151 155 159 150 135 148 181 176 171 167 174 174 171 169 159 152 175 152 164 224 143 129 137 153 137 141 131 22 288 211 173 179 194 189
157 158 160 162 149 151 154 155 155 157 156 158 135 133 108 108 140 166 167 179 189 187 169 159 162 159 154 177 214 152 141 142 154 132 144 113 196 134 225 225 207 195 190
161 160 160 166 158 161 153 152 156 162 165 159 155 158 165 157 170 167 173 181 184 183 174 157 156 177 159 164 170 161 150 132 156 85 178 123 150 174 255 288 226 206 202
164 167 168 168 162 154 157 154 161 164 167 169 168 166 176 170 161 163 175 181 189 187 200 168 155 165 159 174 168 160 158 142 146 166 146 165 172 139 141 208 238 249 222
166 164 164 155 159 152 150 153 165 172 169 175 172 176 176 172 173 172 177 184 167 181 202 192 167 177 175 171 181 168 170 169 166 174 178 170 170 189 160 176 205 204 240
156 154 156 162 162 156 157 158 166 175 174 183 178 181 181 180 181 180 179 183 194 194 192 187 176 169 172 182 176 179 177 183 149 143 295 235 202 162 181 164 189 202 233
150 160 166 167 166 160 159 163 170 174 179 182 190 187 188 185 186 189 187 194 200 207 191 179 178 185 174 178 189 180 178 176 188 155 205 269 273 232 206 191 167 228 227
140 162 167 168 166 163 168 164 169 176 184 185 186 194 196 192 192 195 196 196 196 199 197 191 194 187 190 188 184 187 190 191 201 193 213 224 248 257 241 215 205 210 232
167 161 167 169 168 165 165 167 172 176 179 184 185 193 195 203 202 193 200 201 204 202 199 199 197 200 206 208 199 200 199 198 204 201 210 218 224 229 231 232 221 213 228
26 187 167 161 160 161 163 169 169 173 176 184 183 191 196 202 206 206 201 205 206 207 210 206 204 202 202 202 207 214 212 213 214 215 213 218 220 223 222 224 227 229 226
32 34 144 147 156 162 165 173 175 174 179 182 186 194 199 202 206 211 207 204 210 210 213 215 215 218 216 214 213 217 215 217 219 223 223 225 219 229 228 221 225 227 228
42 39 49 30 146 164 171 174 174 181 172 181 187 195 197 205 212 213 206 211 210 212 213 215 221 221 222 223 222 222 221 224 226 228 227 230 223 227 224 224 228 228 231
59 50 48 45 44 39 10 200 185 184 180 179 185 193 199 204 208 213 217 216 215 215 214 216 219 223 223 223 221 223 225 227 229 226 225 227 225 229 229 227 224 229 233
56 47 48 49 40 30 21 12 16 296 217 187 193 195 196 199 204 208 213 218 220 221 217 219 222 223 226 226 223 222 222 222 226 228 229 229 227 225 225 224 231 232 236
45 45 52 40 34 17 9 10 355 340 356 264 232 198 194 197 201 205 209 214 217 216 220 224 224 223 228 228 215 218 224 227 230 234 233 234 231 234 230 229 232 230 227
45 43 43 35 19 9 4 1 10 10 17 29 14 328 248 202 204 203 205 213 216 211 220 226 223 225 226 223 215 213 227 230 233 234 234 233 231 223 230 231 232 69 43
56 43 33 27 17 5 2 359 12 18 16 13 8 8 1 348 307 214 208 211 207 213 218 223 223 225 230 215 214 212 220 232 236 233 228 231 232 219 214 121 102 92 56
60 61 48 35 17 7 358 4 10 11 12 8 1 359 0 345 337 332 235 217 211 213 214 217 214 220 222 27 334 213 229 240 276 43 26 347 178 178 144 128 119 102 94
56 60 54 41 28 11 0 12 9 8 9 2 358 357 357 356 358 349 338 287 222 218 204 90 63 49 76 22 3 209 155 116 105 66 50 49 69 87 129 135 137 122 123
45 59 52 42 27 10 9 18 12 13 1 1 7 7 4 9 4 1 4 360 8 71 77 81 61 49 29 24 37 65 122 131 111 97 84 77 82 83 85 75 60 96 111
43 48 47 41 24 16 14 14 11 2 6 12 19 23 15 14 23 23 18 23 28 44 57 67 64 51 37 28 49 73 80 84 91 90 92 95 96 92 93 84 97 92 78
39 41 44 40 30 22 20 17 357 6 12 20 25 28 27 24 36 45 36 34 31 37 45 51 63 63 59 66 37 61 70 84 83 81 78 75 66 75 75 74 71 69 70
37 37 43 41 34 24 23 20 11 19 29 36 31 31 37 35 34 44 59 61 41 40 37 56 34 61 34 70 86 37 31 71 73 94 77 60 68 64 51 63 57 52 65
48 46 42 37 33 25 26 18 18 24 41 46 46 37 44 42 46 49 46 49 68 63 45 61 68 41 73 47 87 85 88 15 76 72 86 85 60 72 71 59 57 51 47
51 49 41 34 25 26 25 19 18 29 37 44 42 41 47 51 53 49 56 53 56 64 60 53 54 72 69 51 70 70 75 84 71 75 67 73 72 64 76 71 64 56 56